sat.trackr.live / text

‹ back to catalog

STARLINK-37386

NORAD 68898 · 2026-097D

PAYLOAD ACTIVE UNKNOWN

§ Identity

Operator
Country
US
Launch date
2026-04-30
Launch site
AFWTR
Launch vehicle
Mass (kg)
RCS (m²)

Purposes: comms

External: N2YO · Heavens-Above · Gunter

§ Orbital elements

Epoch: 2026-09-20T00:06:19.830816Z

Period
93.91 min
Inclination
97.2901°
Eccentricity
0.0000652
Mean motion
15.33446783 rev/d
Perigee alt
465.1 km
Apogee alt
466.0 km
Semi-major
6,843.7 km
B*
3.3071e-4
RAAN
97.1177°
Arg perigee
67.4471°
Mean anomaly
292.6841°
Rev number
2,201

§ Raw data

STARLINK-373861 68898U 26097D   26263.00439619  .00010617  00000+0  33071-3 0  99952 68898  97.2901  97.1177 0000652  67.4471 292.6841 15.33446783 22014

JSON: /api/v1/satellites/68898 · /tle

For live sub-satellite position, see the globe view (requires WebGL).

§ Visibility from observer

Set your observer location to see the next 7 days of passes ≥ 10°. The values pass through the URL so the page stays shareable.

No JS? Fill the form by hand. The geolocation button needs JavaScript.